Weather History for Frankfort, MI

Change the Weather History Date:

Saturday, September 14, 2013

  Actual Average (KTVC) Record (KTVC)
Temperature  
Mean Temperature 50 °F 61 °F  
Max Temperature 63 °F 71 °F 94 °F (1939)
Min Temperature 36 °F 50 °F 30 °F (1963)
Degree Days  
Heating Degree Days 16 6  
Month to date heating degree days 57  
Since 1 July heating degree days 126  
Cooling Degree Days 0 1  
Month to date cooling degree days 26  
Year to date cooling degree days 395  
Moisture  
Dew Point 43 °F    
Average Humidity 75    
Maximum Humidity 95    
Minimum Humidity 47    
Precipitation  
Precipitation 0.00 in 0.13 in 1.81 in (1961)
Month to date precipitation 1.66  
Year to date precipitation 22.77  
Sea Level Pressure  
Sea Level Pressure 30.11 in    
Wind  
Wind Speed 3 mph (SSW)    
Max Wind Speed 14 mph    
Max Gust Speed 20 mph    
Visibility 10 miles    
Events      
T = Trace of Precipitation, MM = Missing Value Source: NWS Daily Summary

Daily Weather History Graph

Daily Weather History Graph

Search for Another Location

Airport:

Trip Planner

Search our weather history database for the weather conditions in past years. The results will help you decide how hot, cold, wet, or windy it might be!

Date:

Astronomy

Sep. 14, 2013 Rise Set
Actual Time 7:22 AM EDT 7:56 PM EDT
Civil Twilight 6:53 AM EDT 8:26 PM EDT
Nautical Twilight 6:18 AM EDT 9:00 PM EDT
Astronomical Twilight 5:42 AM EDT 9:36 PM EDT
Moon 4:46 PM EDT (9/14) 1:43 AM EDT (9/14)
Length of Visible Light 13h 32m
Length of Day
12h 34m
Waxing Gibbous, 72% of the Moon is Illuminated
Sep 14
Waxing Gibbous
Sep 19
Full
Sep 26
Last Quarter
Oct 4
New
Oct 11
First Quarter

Hourly Weather History & Observations

Time (EDT) Temp. Dew Point Humidity Pressure Visibility Wind Dir Wind Speed Gust Speed Precip Events Conditions
12:12 AM 41.2 °F 38.7 °F 91% 30.15 in 10.0 mi Calm Calm - N/A   Clear
12:32 AM 39.9 °F 37.8 °F 92% 30.15 in 10.0 mi Calm Calm - N/A   Clear
12:52 AM 39.7 °F 37.9 °F 93% 30.15 in 10.0 mi Calm Calm - N/A   Clear
1:12 AM 39.4 °F 37.4 °F 93% 30.14 in 10.0 mi Calm Calm - N/A   Clear
1:32 AM 39.6 °F 37.4 °F 92% 30.14 in 10.0 mi Calm Calm - N/A   Clear
1:52 AM 38.3 °F 36.5 °F 93% 30.14 in 10.0 mi Calm Calm - N/A   Clear
2:12 AM 38.8 °F 37.0 °F 93% 30.14 in 10.0 mi Calm Calm - N/A   Clear
2:32 AM 38.5 °F 36.7 °F 93% 30.15 in 10.0 mi Calm Calm - N/A   Clear
2:53 AM 38.3 °F 36.9 °F 95% 30.14 in 10.0 mi Calm Calm - N/A   Clear
3:13 AM 38.3 °F 36.5 °F 93% 30.14 in 10.0 mi Calm Calm - N/A   Clear
3:33 AM 37.4 °F 35.6 °F 93% 30.14 in 10.0 mi Calm Calm - N/A   Clear
3:53 AM 37.6 °F 36.0 °F 94% 30.14 in 10.0 mi Calm Calm - N/A   Clear
4:13 AM 36.9 °F 35.1 °F 93% 30.15 in 10.0 mi Calm Calm - N/A   Clear
4:33 AM 37.2 °F 35.6 °F 94% 30.15 in 10.0 mi Calm Calm - N/A   Clear
4:53 AM 37.4 °F 35.6 °F 93% 30.15 in 10.0 mi Calm Calm - N/A   Clear
5:13 AM 36.9 °F 34.9 °F 93% 30.15 in 10.0 mi Calm Calm - N/A   Clear
5:33 AM 36.9 °F 34.9 °F 93% 30.15 in 10.0 mi Calm Calm - N/A   Clear
5:53 AM 36.9 °F 35.2 °F 94% 30.15 in 10.0 mi Calm Calm - N/A   Clear
6:14 AM 36.1 °F 34.3 °F 93% 30.15 in 10.0 mi Calm Calm - N/A   Clear
6:34 AM 37.0 °F 35.6 °F 95% 30.15 in 10.0 mi Calm Calm - N/A   Clear
6:54 AM 36.9 °F 35.1 °F 93% 30.15 in 10.0 mi Calm Calm - N/A   Clear
7:14 AM 37.4 °F 35.4 °F 93% 30.15 in 10.0 mi Calm Calm - N/A   Clear
7:34 AM 37.2 °F 35.1 °F 92% 30.16 in 10.0 mi Calm Calm - N/A   Clear
7:54 AM 38.1 °F 36.0 °F 92% 30.15 in 10.0 mi Calm Calm - N/A   Clear
8:14 AM 40.1 °F 37.9 °F 92% 30.16 in 10.0 mi Calm Calm - N/A   Clear
8:34 AM 44.4 °F 42.4 °F 93% 30.17 in 10.0 mi Calm Calm - N/A   Clear
8:55 AM 46.9 °F 44.2 °F 90% 30.17 in 10.0 mi Calm Calm - N/A   Clear
9:15 AM 50.4 °F 43.9 °F 78% 30.17 in 10.0 mi Calm Calm - N/A   Clear
9:35 AM 53.2 °F 43.2 °F 69% 30.17 in 10.0 mi Calm Calm - N/A   Clear
9:55 AM 54.7 °F 42.1 °F 62% 30.17 in 10.0 mi SSW 3.5 mph - N/A   Clear
10:15 AM 56.1 °F 41.4 °F 58% 30.17 in 10.0 mi South 6.9 mph - N/A   Clear
10:35 AM 57.2 °F 40.1 °F 53% 30.16 in 10.0 mi SSW 6.9 mph - N/A   Clear
10:55 AM 58.1 °F 41.2 °F 53% 30.16 in 10.0 mi South 4.6 mph - N/A   Clear
11:15 AM 59.0 °F 40.8 °F 51% 30.15 in 10.0 mi SW 5.8 mph - N/A   Clear
11:35 AM 59.0 °F 39.2 °F 48% 30.15 in 10.0 mi South 9.2 mph - N/A   Clear
11:56 AM 59.5 °F 39.0 °F 47% 30.14 in 10.0 mi SSW 9.2 mph - N/A   Clear
12:16 PM 60.4 °F 41.7 °F 50% 30.14 in 10.0 mi SW 8.1 mph - N/A   Clear
12:36 PM 60.4 °F 43.9 °F 54% 30.13 in 10.0 mi SSW 10.4 mph 17.3 mph N/A   Clear
12:56 PM 61.3 °F 45.9 °F 57% 30.13 in 10.0 mi SSW 9.2 mph - N/A   Clear
1:16 PM 61.2 °F 47.5 °F 61% 30.13 in 10.0 mi SSW 9.2 mph - N/A   Clear
1:36 PM 61.0 °F 49.3 °F 65% 30.13 in 10.0 mi SW 8.1 mph - N/A   Clear
1:56 PM 63.0 °F 51.1 °F 65% 30.12 in 10.0 mi SW 9.2 mph - N/A   Clear
2:11 PM 63.0 °F 51.1 °F 65% 30.11 in 10.0 mi SSW 13.8 mph 17.3 mph N/A   Clear
2:31 PM 62.6 °F 50.9 °F 66% 30.10 in 10.0 mi SSW 9.2 mph 17.3 mph N/A   Clear
2:51 PM 63.1 °F 49.3 °F 61% 30.09 in 10.0 mi SW 9.2 mph - N/A   Clear
3:12 PM 63.1 °F 48.6 °F 59% 30.08 in 10.0 mi SW 9.2 mph - N/A   Clear
3:32 PM 63.1 °F 47.7 °F 57% 30.08 in 10.0 mi SSW 10.4 mph 19.6 mph N/A   Clear
3:52 PM 62.6 °F 47.3 °F 57% 30.07 in 10.0 mi SW 9.2 mph 17.3 mph N/A   Clear
4:12 PM 62.1 °F 46.4 °F 56% 30.07 in 10.0 mi SSW 9.2 mph 16.1 mph N/A   Clear
4:32 PM 62.1 °F 47.8 °F 60% 30.07 in 10.0 mi SSW 12.7 mph 17.3 mph N/A   Clear
4:52 PM 61.9 °F 49.3 °F 63% 30.06 in 10.0 mi SSW 9.2 mph 17.3 mph N/A   Clear
5:12 PM 63.0 °F 49.8 °F 62% 30.06 in 10.0 mi SSW 9.2 mph - N/A   Clear
5:32 PM 61.2 °F 48.9 °F 64% 30.06 in 10.0 mi South 12.7 mph - N/A   Clear
5:53 PM 60.8 °F 48.9 °F 65% 30.05 in 10.0 mi South 9.2 mph - N/A   Clear
6:13 PM 61.5 °F 48.6 °F 62% 30.05 in 10.0 mi SSW 8.1 mph - N/A   Clear
6:33 PM 60.4 °F 48.9 °F 66% 30.05 in 10.0 mi SSW 6.9 mph - N/A   Clear
6:53 PM 60.3 °F 48.9 °F 66% 30.05 in 10.0 mi South 9.2 mph 16.1 mph N/A   Clear
7:13 PM 59.4 °F 49.8 °F 71% 30.05 in 10.0 mi South 6.9 mph - N/A   Clear
7:33 PM 59.0 °F 50.0 °F 72% 30.03 in 10.0 mi South 8.1 mph 17.3 mph N/A   Clear
7:53 PM 59.9 °F 50.0 °F 70% 30.03 in 10.0 mi SSW 5.8 mph - N/A   Clear
8:13 PM 59.9 °F 50.0 °F 70% 30.03 in 10.0 mi South 5.8 mph - N/A   Clear
8:33 PM 59.5 °F 50.0 °F 71% 30.04 in 10.0 mi South 4.6 mph - N/A   Clear
8:56 PM 59.5 °F 50.0 °F 71% 30.03 in 10.0 mi SSE 6.9 mph - N/A   Clear
9:16 PM 59.0 °F 49.6 °F 71% 30.03 in 10.0 mi South 5.8 mph - N/A   Clear
9:36 PM 59.7 °F 50.0 °F 70% 30.04 in 10.0 mi South 6.9 mph - N/A   Clear
9:56 PM 59.9 °F 50.2 °F 70% 30.03 in 10.0 mi South 8.1 mph - N/A   Clear
10:11 PM 59.9 °F 50.2 °F 70% 30.02 in 10.0 mi South 10.4 mph - N/A   Clear
10:31 PM 60.1 °F 50.9 °F 72% 30.02 in 10.0 mi South 9.2 mph - N/A   Clear
10:51 PM 60.8 °F 50.9 °F 70% 30.02 in 10.0 mi South 8.1 mph - N/A   Clear
11:11 PM 60.8 °F 51.3 °F 71% 30.02 in 10.0 mi South 10.4 mph - N/A   Clear
11:32 PM 61.0 °F 51.6 °F 71% 30.02 in 10.0 mi South 8.1 mph - N/A   Clear
11:52 PM 61.0 °F 51.8 °F 72% 30.02 in 10.0 mi South 5.8 mph - N/A   Clear